Regional Weather Roundup
Issued by NWS Memphis, TN

Home | Current Version | Previous Version | Text Only | Print | Product List | Glossary On
Versions: 1 2 3 4 5 6 7 8 9 10 11 12 13 14 15 16 17 18 19 20 21 22 23 24 25 26 27 28 29 30 31 32 33 34 35 36 37 38 39 40 41 42 43 44 45 46 47 48 49 50
000
ASUS44 KMEG 010200
RWRMEG
MEMPHIS CWA HOURLY WEATHER ROUNDUP
NATIONAL WEATHER SERVICE MEMPHIS TN
900 PM CDT FRI SEP 30 2016

...WEST TENNESSEE...

CITY           SKY/WX    TMP DP  RH WIND       PRES   REMARKS
MEMPHIS INTL   MOCLDY    68  54  60 NW5       30.06R
NWS MEMPHIS      N/A     66 N/A N/A MISG        N/A
JACKSON          N/A    N/A N/A N/A MISG      30.05S
LEXINGTON      MOCLDY    61  57  88 CALM      30.05S
DYERSBURG      CLOUDY   N/A N/A N/A MISG        N/A
UNION CITY     CLOUDY    63  59  88 CALM      30.03F
PARIS          PTCLDY    55  54  94 CALM      30.05S


...EASTERN ARKANSAS...

CITY           SKY/WX    TMP DP  RH WIND       PRES   REMARKS
JONESBORO      CLOUDY    67  56  67 N5        30.06S
WEST MEMPHIS   CLEAR     64  53  67 CALM      30.05S
BATESVILLE     CLOUDY    64  55  72 CALM      30.09S
NEWPORT        CLOUDY    66  57  72 NW3       30.08R
WALNUT RIDGE   CLOUDY    66  55  68 NW5       30.07S
BLYTHEVILLE    MOCLDY    63  58  83 NW5       30.06S
SEARCY         PTCLDY    67  57  70 CALM      30.09R
STUTTGART      CLOUDY    66  54  63 CALM      30.08R
PINE BLUFF     CLEAR     63  57  81 NE6       30.06S
MONTICELLO     CLEAR     63  58  83 CALM      30.06S


...NORTH MISSISSIPPI...

CITY           SKY/WX    TMP DP  RH WIND       PRES   REMARKS
TUPELO         CLEAR     66  51  58 CALM      30.06R
TUNICA         CLEAR     63  52  67 CALM      30.07S
CLARKSDALE       N/A     63  55  77 CALM      30.07R
GREENWOOD      CLEAR     60  54  80 CALM      30.06R
COLUMBUS       CLEAR     62  55  75 CALM      30.04R
STARKVILLE     CLEAR     59  55  88 CALM      30.07R
GOLDEN TRIANGL CLEAR     63  48  59 SW3       30.05R


...SOUTHEAST MISSOURI...

CITY           SKY/WX    TMP DP  RH WIND       PRES   REMARKS
KENNETT        MOCLDY    66  59  77 NW6       30.05R
WEST PLAINS    CLOUDY    63  56  78 CALM      30.11S
POPLAR BLUFF   CLEAR     61  58  90 CALM      30.06R
CAPE GIRARDEAU CLOUDY    62  58  86 W6        30.03S


...NORTHWEST ALABAMA...

CITY           SKY/WX    TMP DP  RH WIND       PRES   REMARKS
MUSCLE SHOALS  PTCLDY    59  51  75 SE5       30.07R


...MIDDLE TENNESSEE...

CITY           SKY/WX    TMP DP  RH WIND       PRES   REMARKS
NASHVILLE      CLOUDY    60  58  92 CALM      30.05R
CLARKSVILLE    CLOUDY    62  58  86 W3        30.04R


...WESTERN KENTUCKY...

CITY           SKY/WX    TMP DP  RH WIND       PRES   REMARKS
PADUCAH        LGT RAIN  62  59  90 W7        30.02F FOG
FORT CAMPBELL  MOCLDY    61  59  94 SW7       30.03S


...CENTRAL ARKANSAS...

CITY           SKY/WX    TMP DP  RH WIND       PRES   REMARKS
LITTLE ROCK    PTCLDY    64  59  83 CALM      30.07R


SKY/WX REPORTED AS FAIR MEANS FEW OR NO CLOUDS BELOW
12 THOUSAND FEET.





USA.gov is the U.S. government's official web portal to all federal, state and local government web resources and services.